sat.trackr.live / text

‹ back to catalog

STARLINK-36790

NORAD 68095 · 2026-042AC

PAYLOAD ACTIVE UNKNOWN

§ Identity

Operator
Country
US
Launch date
2026-03-04
Launch site
AFETR
Launch vehicle
Mass (kg)
RCS (m²)

Purposes: comms

External: N2YO · Heavens-Above · Gunter

§ Orbital elements

Epoch: 2026-05-24T19:58:42.056544Z

Period
93.85 min
Inclination
53.1591°
Eccentricity
0.0001227
Mean motion
15.34394814 rev/d
Perigee alt
461.9 km
Apogee alt
463.6 km
Semi-major
6,840.9 km
B*
5.0353e-4
RAAN
184.2835°
Arg perigee
88.5724°
Mean anomaly
271.5419°
Rev number
1,396

§ Raw data

STARLINK-367901 68095U 26042AC  26144.83243121  .00016671  00000+0  50353-3 0  99922 68095  53.1591 184.2835 0001227  88.5724 271.5419 15.34394814 13961

JSON: /api/v1/satellites/68095 · /tle

For live sub-satellite position, see the globe view (requires WebGL).

§ Visibility from observer

Set your observer location to see the next 7 days of passes ≥ 10°. The values pass through the URL so the page stays shareable.

No JS? Fill the form by hand. The geolocation button needs JavaScript.